Time,TemperatureF,DewpointF,PressureIn,WindDirection,WindDirectionDegrees,WindSpeedMPH,WindSpeedGustMPH,Humidity,HourlyPrecipIn,Conditions,Clouds,dailyrainin,SoftwareType,DateUTC
2013-12-09 12:53:00,34.0,28.0,-100.00,West,270,5.0,15.0,80,0.00,,,-99.99,,2013-12-09 17:53:00,
2013-12-09 13:22:00,33.0,26.0,-100.00,West,270,6.0,12.0,75,0.00,,,-99.99,,2013-12-09 18:22:00,
2013-12-09 13:52:00,33.0,26.0,-100.00,WNW,285,4.0,13.0,74,0.00,,,-99.99,,2013-12-09 18:52:00,
2013-12-09 14:22:00,33.0,26.0,-100.00,WNW,295,4.0,11.0,76,0.00,,,-99.99,,2013-12-09 19:22:00,
2013-12-09 14:52:00,33.0,26.0,-100.00,SW,230,2.0,12.0,75,0.00,,,-99.99,,2013-12-09 19:52:00,
2013-12-09 15:22:00,32.0,25.0,-100.00,SW,235,6.0,14.0,74,0.00,,,-99.99,,2013-12-09 20:22:00,
2013-12-09 15:53:00,32.0,25.0,-100.00,WSW,250,5.0,12.0,74,0.00,,,-99.99,,2013-12-09 20:53:00,
2013-12-09 16:22:00,31.0,23.0,-100.00,WNW,285,5.0,13.0,71,-99.99,,,-99.99,,2013-12-09 21:22:00,
2013-12-09 16:53:00,31.0,23.0,-100.00,West,270,4.0,14.0,72,0.00,,,-99.99,,2013-12-09 21:53:00,
2013-12-09 17:23:00,31.0,23.0,-100.00,WSW,250,2.0,12.0,72,-99.99,,,-99.99,,2013-12-09 22:23:00,
2013-12-09 17:53:00,30.0,23.0,-100.00,WSW,255,4.0,12.0,72,-99.99,,,-99.99,,2013-12-09 22:53:00,
2013-12-09 18:12:00,30.0,23.0,-100.00,WNW,300,4.0,9.0,73,-99.99,,,-99.99,,2013-12-09 23:12:00,
2013-12-09 18:22:00,30.0,23.0,-100.00,WNW,300,4.0,9.0,73,-99.99,,,-99.99,,2013-12-09 23:22:00,
2013-12-09 18:33:00,30.0,23.0,-100.00,WNW,300,4.0,9.0,73,-99.99,,,-99.99,,2013-12-09 23:33:00,
2013-12-09 18:53:00,30.0,23.0,-100.00,South,175,1.0,6.0,75,0.00,,,-99.99,,2013-12-09 23:53:00,
2013-12-09 19:22:00,30.0,22.0,-100.00,West,260,2.0,9.0,72,-99.99,,,-99.99,,2013-12-10 00:22:00,
2013-12-09 19:52:00,30.0,22.0,-100.00,West,270,4.0,9.0,73,-99.99,,,-99.99,,2013-12-10 00:52:00,
2013-12-09 20:22:00,30.0,23.0,-100.00,West,265,1.0,9.0,75,0.00,,,-99.99,,2013-12-10 01:22:00,
2013-12-09 20:52:00,29.0,22.0,-100.00,West,260,1.0,9.0,74,0.00,,,-99.99,,2013-12-10 01:52:00,
2013-12-09 21:52:00,29.0,22.0,-100.00,SW,225,1.0,8.0,73,-99.99,,,-99.99,,2013-12-10 02:52:00,
2013-12-09 22:22:00,29.0,22.0,-100.00,WNW,285,1.0,6.0,74,-99.99,,,-99.99,,2013-12-10 03:22:00,
2013-12-09 22:53:00,29.0,21.0,-100.00,WNW,295,2.0,6.0,74,-99.99,,,-99.99,,2013-12-10 03:53:00,
2013-12-09 23:23:00,28.0,20.0,-100.00,West,275,2.0,7.0,72,-99.99,,,-99.99,,2013-12-10 04:23:00,
2013-12-09 23:53:00,28.0,20.0,-100.00,West,260,1.0,6.0,71,-99.99,,,-99.99,,2013-12-10 04:53:00,